Time,TemperatureF,DewpointF,PressureIn,WindDirection,WindDirectionDegrees,WindSpeedMPH,WindSpeedGustMPH,Humidity,HourlyPrecipIn,Conditions,Clouds,dailyrainin,SoftwareType,DateUTC
2013-09-07 00:00:00,59.1,54.9,30.10,East,82,0.0,0.0,86,0.00,,,0.00,Wunderground v.1.15,2013-09-07 04:00:00,
2013-09-07 00:05:00,59.2,55.0,30.10,East,82,0.0,0.0,86,0.00,,,0.00,Wunderground v.1.15,2013-09-07 04:05:00,
2013-09-07 00:15:00,59.3,55.4,30.10,East,82,0.0,0.0,87,0.00,,,0.00,Wunderground v.1.15,2013-09-07 04:15:00,
2013-09-07 00:20:00,59.4,55.5,30.10,East,81,0.0,0.0,87,0.00,,,0.00,Wunderground v.1.15,2013-09-07 04:20:00,
2013-09-07 00:30:00,59.8,55.9,30.10,East,81,0.0,0.0,87,0.00,,,0.01,Wunderground v.1.15,2013-09-07 04:30:00,
2013-09-07 00:35:00,60.0,56.1,30.09,SSE,163,0.0,0.0,87,0.00,,,0.01,Wunderground v.1.15,2013-09-07 04:35:00,
2013-09-07 00:45:00,60.5,56.6,30.10,SSE,163,0.0,0.0,87,0.00,,,0.01,Wunderground v.1.15,2013-09-07 04:45:00,
2013-09-07 00:55:00,60.9,56.7,30.09,WSW,247,0.0,0.0,86,0.00,,,0.01,Wunderground v.1.15,2013-09-07 04:55:00,
2013-09-07 01:00:00,61.0,56.8,30.10,WSW,248,0.0,0.0,86,0.00,,,0.01,Wunderground v.1.15,2013-09-07 05:00:00,
2013-09-07 01:05:00,61.0,56.8,30.10,WSW,248,0.0,0.0,86,0.00,,,0.01,Wunderground v.1.15,2013-09-07 05:05:00,
2013-09-07 01:15:00,61.3,56.8,30.10,WSW,248,0.0,0.0,85,0.00,,,0.01,Wunderground v.1.15,2013-09-07 05:15:00,
2013-09-07 01:20:00,61.2,57.0,30.10,WSW,248,0.0,0.0,86,0.00,,,0.01,Wunderground v.1.15,2013-09-07 05:20:00,
2013-09-07 01:30:00,61.4,57.2,30.10,SSW,209,0.0,0.0,86,0.00,,,0.01,Wunderground v.1.15,2013-09-07 05:30:00,
2013-09-07 01:35:00,61.6,57.4,30.10,SW,230,0.0,0.0,86,0.00,,,0.01,Wunderground v.1.15,2013-09-07 05:35:00,
2013-09-07 01:45:00,61.8,57.6,30.10,SW,228,0.0,0.0,86,0.00,,,0.01,Wunderground v.1.15,2013-09-07 05:45:00,
2013-09-07 01:55:00,62.0,57.4,30.10,SW,229,0.0,0.0,85,0.00,,,0.01,Wunderground v.1.15,2013-09-07 05:55:00,
2013-09-07 02:00:00,61.8,57.2,30.10,SW,231,0.0,0.0,85,0.00,,,0.01,Wunderground v.1.15,2013-09-07 06:00:00,
2013-09-07 02:10:00,61.6,57.0,30.10,SW,231,0.0,0.0,85,0.00,,,0.01,Wunderground v.1.15,2013-09-07 06:10:00,
2013-09-07 02:15:00,61.4,56.8,30.09,SW,231,0.0,0.0,85,0.00,,,0.01,Wunderground v.1.15,2013-09-07 06:15:00,
2013-09-07 02:20:00,61.3,56.8,30.09,SSW,212,0.0,0.0,85,0.00,,,0.01,Wunderground v.1.15,2013-09-07 06:20:00,
2013-09-07 02:30:00,61.5,56.6,30.09,SSW,212,0.0,0.0,84,0.00,,,0.01,Wunderground v.1.15,2013-09-07 06:30:00,
2013-09-07 02:35:00,61.5,56.3,30.09,SSW,212,0.0,0.0,83,0.00,,,0.01,Wunderground v.1.15,2013-09-07 06:35:00,
2013-09-07 02:45:00,61.0,55.8,30.09,SSW,212,0.0,0.0,83,0.00,,,0.01,Wunderground v.1.15,2013-09-07 06:45:00,
2013-09-07 02:55:00,60.3,55.8,30.09,SSW,212,0.0,0.0,85,0.00,,,0.01,Wunderground v.1.15,2013-09-07 06:55:00,
2013-09-07 03:00:00,59.9,55.7,30.09,SSW,212,0.0,0.0,86,0.00,,,0.01,Wunderground v.1.15,2013-09-07 07:00:00,
2013-09-07 03:10:00,59.2,55.0,30.09,SSW,212,0.0,0.0,86,0.00,,,0.01,Wunderground v.1.15,2013-09-07 07:10:00,
2013-09-07 03:15:00,58.9,55.0,30.08,SSW,212,0.0,0.0,87,0.00,,,0.01,Wunderground v.1.15,2013-09-07 07:15:00,
2013-09-07 03:25:00,58.6,54.4,30.08,SSW,212,0.0,0.0,86,0.00,,,0.01,Wunderground v.1.15,2013-09-07 07:25:00,
2013-09-07 03:30:00,58.7,54.2,30.08,SSW,212,0.0,0.0,85,0.00,,,0.01,Wunderground v.1.15,2013-09-07 07:30:00,
2013-09-07 03:40:00,58.9,53.4,30.08,SSW,212,0.0,0.0,82,0.00,,,0.01,Wunderground v.1.15,2013-09-07 07:40:00,
2013-09-07 03:50:00,58.9,53.1,30.08,ESE,104,0.0,0.0,81,0.00,,,0.01,Wunderground v.1.15,2013-09-07 07:50:00,
2013-09-07 03:55:00,58.8,53.0,30.08,ESE,104,0.0,0.0,81,0.00,,,0.01,Wunderground v.1.15,2013-09-07 07:55:00,
2013-09-07 04:00:00,58.8,53.0,30.08,ESE,104,0.0,0.0,81,0.00,,,0.01,Wunderground v.1.15,2013-09-07 08:00:00,
2013-09-07 04:10:00,58.9,53.1,30.08,ESE,104,0.0,0.0,81,0.00,,,0.01,Wunderground v.1.15,2013-09-07 08:10:00,
2013-09-07 04:15:00,58.8,53.0,30.08,ESE,104,0.0,0.0,81,0.00,,,0.01,Wunderground v.1.15,2013-09-07 08:15:00,
2013-09-07 04:25:00,58.8,52.6,30.07,ESE,104,0.0,0.0,80,0.00,,,0.01,Wunderground v.1.15,2013-09-07 08:25:00,
2013-09-07 04:35:00,58.9,52.1,30.07,SW,226,0.0,0.0,78,0.00,,,0.01,Wunderground v.1.15,2013-09-07 08:35:00,
2013-09-07 04:40:00,59.0,51.8,30.07,SW,226,0.0,0.0,77,0.00,,,0.01,Wunderground v.1.15,2013-09-07 08:40:00,
2013-09-07 04:50:00,59.2,51.3,30.06,SW,220,0.0,0.0,75,0.00,,,0.01,Wunderground v.1.15,2013-09-07 08:50:00,
2013-09-07 05:00:00,59.3,50.6,30.07,SW,220,0.0,0.0,73,0.00,,,0.01,Wunderground v.1.15,2013-09-07 09:00:00,
2013-09-07 05:05:00,59.3,50.6,30.06,SW,220,0.0,0.0,73,0.00,,,0.01,Wunderground v.1.15,2013-09-07 09:05:00,
2013-09-07 05:15:00,59.1,50.5,30.06,SW,221,0.0,0.0,73,0.00,,,0.01,Wunderground v.1.15,2013-09-07 09:15:00,
2013-09-07 05:20:00,59.1,50.5,30.06,SW,229,0.0,1.0,73,0.00,,,0.01,Wunderground v.1.15,2013-09-07 09:20:00,
2013-09-07 05:30:00,59.0,50.4,30.06,SW,229,0.0,0.0,73,0.00,,,0.01,Wunderground v.1.15,2013-09-07 09:30:00,
2013-09-07 05:35:00,58.9,50.3,30.06,SW,229,0.0,0.0,73,0.00,,,0.01,Wunderground v.1.15,2013-09-07 09:35:00,
2013-09-07 05:45:00,58.8,50.2,30.06,SW,218,0.0,0.0,73,0.00,,,0.01,Wunderground v.1.15,2013-09-07 09:45:00,
2013-09-07 05:55:00,58.8,50.2,30.06,SW,218,0.0,0.0,73,0.00,,,0.01,Wunderground v.1.15,2013-09-07 09:55:00,
2013-09-07 06:00:00,58.8,50.5,30.06,SW,218,0.0,1.0,74,0.00,,,0.01,Wunderground v.1.15,2013-09-07 10:00:00,
2013-09-07 06:10:00,58.9,50.3,30.06,SW,217,0.0,0.0,73,0.00,,,0.01,Wunderground v.1.15,2013-09-07 10:10:00,
2013-09-07 06:15:00,59.0,50.4,30.06,SW,217,0.0,0.0,73,0.00,,,0.01,Wunderground v.1.15,2013-09-07 10:15:00,
2013-09-07 06:25:00,59.2,50.2,30.06,SSW,202,0.0,0.0,72,0.00,,,0.01,Wunderground v.1.15,2013-09-07 10:25:00,
2013-09-07 06:30:00,59.1,50.5,30.06,SSW,202,0.0,0.0,73,0.00,,,0.01,Wunderground v.1.15,2013-09-07 10:30:00,
2013-09-07 06:40:00,58.9,50.3,30.06,SSW,202,0.0,0.0,73,0.00,,,0.01,Wunderground v.1.15,2013-09-07 10:40:00,
2013-09-07 06:50:00,58.6,50.3,30.06,SSW,202,0.0,0.0,74,0.00,,,0.01,Wunderground v.1.15,2013-09-07 10:50:00,
2013-09-07 06:55:00,58.5,50.2,30.06,SSW,202,0.0,0.0,74,0.00,,,0.01,Wunderground v.1.15,2013-09-07 10:55:00,
2013-09-07 07:00:00,58.4,50.5,30.06,SSW,202,0.0,0.0,75,0.00,,,0.01,Wunderground v.1.15,2013-09-07 11:00:00,
2013-09-07 07:10:00,58.2,50.7,30.06,SSW,202,0.0,0.0,76,0.00,,,0.01,Wunderground v.1.15,2013-09-07 11:10:00,
2013-09-07 07:20:00,58.2,50.7,30.05,SW,219,0.0,0.0,76,0.00,,,0.01,Wunderground v.1.15,2013-09-07 11:20:00,
2013-09-07 07:25:00,58.4,50.9,30.06,SW,219,0.0,0.0,76,0.00,,,0.01,Wunderground v.1.15,2013-09-07 11:25:00,
2013-09-07 07:35:00,59.0,51.1,30.05,SSW,207,0.0,1.0,75,0.00,,,0.01,Wunderground v.1.15,2013-09-07 11:35:00,
2013-09-07 07:40:00,59.1,50.8,30.05,SW,235,0.0,0.0,74,0.00,,,0.01,Wunderground v.1.15,2013-09-07 11:40:00,
2013-09-07 07:50:00,59.6,51.3,30.06,SW,227,0.0,0.0,74,0.00,,,0.01,Wunderground v.1.15,2013-09-07 11:50:00,
2013-09-07 08:00:00,60.0,51.7,30.06,SSW,211,0.0,1.0,74,0.00,,,0.01,Wunderground v.1.15,2013-09-07 12:00:00,
2013-09-07 08:05:00,60.1,51.4,30.06,SW,230,0.0,1.0,73,0.00,,,0.01,Wunderground v.1.15,2013-09-07 12:05:00,
2013-09-07 08:15:00,60.5,52.2,30.05,SW,229,1.0,1.0,74,0.00,,,0.01,Wunderground v.1.15,2013-09-07 12:15:00,
2013-09-07 08:20:00,60.8,52.1,30.05,SSE,159,1.0,1.0,73,0.00,,,0.01,Wunderground v.1.15,2013-09-07 12:20:00,
2013-09-07 08:30:00,61.3,52.6,30.05,SW,226,0.0,0.0,73,0.00,,,0.01,Wunderground v.1.15,2013-09-07 12:30:00,
2013-09-07 08:35:00,61.5,52.8,30.05,WSW,240,0.0,0.0,73,0.00,,,0.01,Wunderground v.1.15,2013-09-07 12:35:00,
2013-09-07 08:45:00,62.2,53.4,30.04,SW,222,0.0,0.0,73,0.00,,,0.01,Wunderground v.1.15,2013-09-07 12:45:00,
2013-09-07 08:55:00,62.9,53.7,30.04,SW,236,0.0,0.0,72,0.00,,,0.01,Wunderground v.1.15,2013-09-07 12:55:00,
2013-09-07 09:00:00,63.2,53.6,30.04,SW,236,0.0,0.0,71,0.00,,,0.01,Wunderground v.1.15,2013-09-07 13:00:00,
2013-09-07 09:10:00,63.5,53.9,30.04,West,266,0.0,1.0,71,0.00,,,0.01,Wunderground v.1.15,2013-09-07 13:10:00,
2013-09-07 09:20:00,64.1,54.5,30.04,West,264,0.0,0.0,71,0.00,,,0.01,Wunderground v.1.15,2013-09-07 13:20:00,
2013-09-07 09:30:00,64.9,54.9,30.04,SW,226,0.0,0.0,70,0.00,,,0.01,Wunderground v.1.15,2013-09-07 13:30:00,
2013-09-07 09:35:00,65.0,55.4,30.04,WSW,249,0.0,0.0,71,0.00,,,0.01,Wunderground v.1.15,2013-09-07 13:35:00,
2013-09-07 09:45:00,65.5,55.8,30.03,West,274,0.0,0.0,71,0.00,,,0.01,Wunderground v.1.15,2013-09-07 13:45:00,
2013-09-07 09:55:00,67.1,57.0,30.03,West,271,0.0,1.0,70,0.00,,,0.01,Wunderground v.1.15,2013-09-07 13:55:00,
2013-09-07 10:00:00,68.0,57.4,30.03,WSW,247,1.0,1.0,69,0.00,,,0.01,Wunderground v.1.15,2013-09-07 14:00:00,
2013-09-07 10:10:00,69.5,58.5,30.03,West,262,1.0,1.0,68,0.00,,,0.01,Wunderground v.1.15,2013-09-07 14:10:00,
2013-09-07 10:15:00,70.3,58.8,30.03,SW,231,1.0,1.0,67,0.00,,,0.02,Wunderground v.1.15,2013-09-07 14:15:00,
2013-09-07 10:25:00,71.1,59.2,30.03,WNW,290,1.0,1.0,66,0.08,,,0.03,Wunderground v.1.15,2013-09-07 14:25:00,
2013-09-07 10:30:00,71.5,59.5,30.03,West,276,1.0,1.0,66,0.07,,,0.03,Wunderground v.1.15,2013-09-07 14:30:00,
2013-09-07 10:40:00,72.7,60.7,30.02,SW,231,1.0,3.0,66,0.00,,,0.03,Wunderground v.1.15,2013-09-07 14:40:00,
2013-09-07 10:45:00,72.7,61.1,30.02,SW,236,2.0,3.0,67,0.00,,,0.03,Wunderground v.1.15,2013-09-07 14:45:00,
2013-09-07 10:55:00,73.3,61.7,30.02,South,186,1.0,2.0,67,0.00,,,0.04,Wunderground v.1.15,2013-09-07 14:55:00,
2013-09-07 11:00:00,74.1,62.0,30.02,West,268,1.0,1.0,66,0.00,,,0.04,Wunderground v.1.15,2013-09-07 15:00:00,
2013-09-07 11:10:00,74.8,62.7,30.02,WSW,255,1.0,1.0,66,0.00,,,0.04,Wunderground v.1.15,2013-09-07 15:10:00,
2013-09-07 11:20:00,75.6,63.0,30.02,West,281,1.0,1.0,65,0.00,,,0.04,Wunderground v.1.15,2013-09-07 15:20:00,
2013-09-07 11:25:00,76.4,63.8,30.01,WNW,283,1.0,1.0,65,0.00,,,0.04,Wunderground v.1.15,2013-09-07 15:25:00,
2013-09-07 11:35:00,76.9,64.2,30.01,WSW,253,1.0,1.0,65,0.00,,,0.04,Wunderground v.1.15,2013-09-07 15:35:00,
2013-09-07 11:45:00,77.2,64.5,30.01,SW,233,1.0,3.0,65,0.00,,,0.04,Wunderground v.1.15,2013-09-07 15:45:00,
2013-09-07 11:50:00,77.3,64.6,30.01,WSW,252,1.0,1.0,65,0.00,,,0.04,Wunderground v.1.15,2013-09-07 15:50:00,
2013-09-07 12:00:00,78.1,65.8,30.01,SW,233,1.0,1.0,66,0.00,,,0.04,Wunderground v.1.15,2013-09-07 16:00:00,
2013-09-07 12:05:00,78.4,65.2,30.01,West,262,1.0,1.0,64,0.00,,,0.04,Wunderground v.1.15,2013-09-07 16:05:00,
2013-09-07 12:15:00,78.8,66.0,30.01,East,101,1.0,1.0,65,0.00,,,0.04,Wunderground v.1.15,2013-09-07 16:15:00,
2013-09-07 12:20:00,79.1,65.9,30.01,WSW,239,1.0,1.0,64,0.00,,,0.04,Wunderground v.1.15,2013-09-07 16:20:00,
2013-09-07 12:30:00,78.6,65.4,30.01,WSW,258,1.0,1.0,64,0.00,,,0.04,Wunderground v.1.15,2013-09-07 16:30:00,
2013-09-07 12:35:00,78.4,66.1,30.01,SW,229,1.0,1.0,66,0.00,,,0.04,Wunderground v.1.15,2013-09-07 16:35:00,
2013-09-07 12:45:00,78.1,66.2,30.01,WSW,242,1.0,1.0,67,0.00,,,0.04,Wunderground v.1.15,2013-09-07 16:45:00,
2013-09-07 12:50:00,78.1,66.7,30.00,WSW,253,1.0,1.0,68,0.00,,,0.04,Wunderground v.1.15,2013-09-07 16:50:00,
2013-09-07 13:00:00,78.8,67.8,30.00,WSW,253,0.0,0.0,69,0.00,,,0.04,Wunderground v.1.15,2013-09-07 17:00:00,
2013-09-07 13:10:00,79.6,68.1,30.00,WSW,240,0.0,0.0,68,0.00,,,0.04,Wunderground v.1.15,2013-09-07 17:10:00,
2013-09-07 13:15:00,80.1,67.7,30.00,WSW,241,0.0,2.0,66,0.00,,,0.04,Wunderground v.1.15,2013-09-07 17:15:00,
2013-09-07 13:25:00,80.6,67.7,29.99,West,280,1.0,1.0,65,0.00,,,0.04,Wunderground v.1.15,2013-09-07 17:25:00,
2013-09-07 13:30:00,80.7,66.5,29.99,NW,304,1.0,1.0,62,0.00,,,0.04,Wunderground v.1.15,2013-09-07 17:30:00,
2013-09-07 13:40:00,81.0,66.8,30.00,WNW,285,1.0,1.0,62,0.00,,,0.04,Wunderground v.1.15,2013-09-07 17:40:00,
2013-09-07 13:45:00,81.0,67.2,30.00,WSW,257,1.0,1.0,63,0.00,,,0.04,Wunderground v.1.15,2013-09-07 17:45:00,
2013-09-07 13:55:00,81.1,67.3,30.00,SW,225,1.0,2.0,63,0.00,,,0.04,Wunderground v.1.15,2013-09-07 17:55:00,
2013-09-07 14:00:00,81.6,67.8,30.00,SW,229,1.0,1.0,63,0.00,,,0.04,Wunderground v.1.15,2013-09-07 18:00:00,
2013-09-07 14:10:00,82.8,68.4,29.99,SW,233,1.0,1.0,62,0.00,,,0.04,Wunderground v.1.15,2013-09-07 18:10:00,
2013-09-07 14:15:00,83.0,67.7,29.97,West,280,1.0,1.0,60,0.00,,,0.04,Wunderground v.1.15,2013-09-07 18:15:00,
2013-09-07 14:25:00,81.9,66.6,29.96,WSW,237,2.0,3.0,60,0.00,,,0.04,Wunderground v.1.15,2013-09-07 18:25:00,
2013-09-07 14:30:00,81.5,67.2,29.96,ESE,115,1.0,2.0,62,0.00,,,0.04,Wunderground v.1.15,2013-09-07 18:30:00,
2013-09-07 14:40:00,80.3,67.9,29.96,WSW,248,1.0,1.0,66,0.00,,,0.04,Wunderground v.1.15,2013-09-07 18:40:00,
2013-09-07 14:50:00,79.2,69.4,29.96,SSE,148,0.0,0.0,72,0.00,,,0.04,Wunderground v.1.15,2013-09-07 18:50:00,
2013-09-07 14:55:00,78.8,69.8,29.96,SSE,148,0.0,0.0,74,0.00,,,0.04,Wunderground v.1.15,2013-09-07 18:55:00,
2013-09-07 15:00:00,78.5,70.3,29.96,SSE,148,0.0,0.0,76,0.00,,,0.04,Wunderground v.1.15,2013-09-07 19:00:00,
2013-09-07 15:10:00,77.9,70.1,29.95,SSE,148,0.0,0.0,77,0.00,,,0.04,Wunderground v.1.15,2013-09-07 19:10:00,
2013-09-07 15:20:00,77.4,70.0,29.95,SSE,148,0.0,0.0,78,0.00,,,0.04,Wunderground v.1.15,2013-09-07 19:20:00,
2013-09-07 15:25:00,77.4,70.0,29.94,SSE,148,0.0,0.0,78,0.00,,,0.04,Wunderground v.1.15,2013-09-07 19:25:00,
2013-09-07 15:35:00,77.6,69.4,29.94,SE,126,0.0,0.0,76,0.00,,,0.04,Wunderground v.1.15,2013-09-07 19:35:00,
2013-09-07 15:45:00,77.9,70.1,29.94,SE,126,0.0,0.0,77,0.00,,,0.04,Wunderground v.1.15,2013-09-07 19:45:00,
2013-09-07 15:50:00,77.8,70.0,29.94,SE,126,0.0,0.0,77,0.00,,,0.04,Wunderground v.1.15,2013-09-07 19:50:00,
2013-09-07 16:00:00,77.9,68.9,29.93,SE,145,0.0,0.0,74,0.00,,,0.04,Wunderground v.1.15,2013-09-07 20:00:00,
2013-09-07 16:05:00,78.1,68.3,29.94,SE,145,0.0,0.0,72,0.00,,,0.04,Wunderground v.1.15,2013-09-07 20:05:00,
2013-09-07 16:15:00,78.5,67.9,29.93,SE,145,0.0,0.0,70,0.00,,,0.05,Wunderground v.1.15,2013-09-07 20:15:00,
2013-09-07 16:20:00,78.8,69.0,29.93,SE,145,0.0,0.0,72,0.00,,,0.05,Wunderground v.1.15,2013-09-07 20:20:00,
2013-09-07 16:30:00,78.7,67.2,29.93,SE,145,0.0,0.0,68,0.00,,,0.05,Wunderground v.1.15,2013-09-07 20:30:00,
2013-09-07 16:35:00,78.9,66.6,29.94,SE,145,0.0,0.0,66,0.00,,,0.05,Wunderground v.1.15,2013-09-07 20:35:00,
2013-09-07 16:45:00,79.2,66.9,29.94,WSW,246,0.0,0.0,66,0.00,,,0.05,Wunderground v.1.15,2013-09-07 20:45:00,
2013-09-07 16:55:00,79.3,67.8,29.94,SW,220,0.0,0.0,68,0.00,,,0.05,Wunderground v.1.15,2013-09-07 20:55:00,
2013-09-07 17:00:00,79.1,67.6,29.95,West,269,0.0,0.0,68,0.00,,,0.05,Wunderground v.1.15,2013-09-07 21:00:00,
2013-09-07 17:10:00,78.7,67.2,29.94,SW,226,0.0,0.0,68,0.00,,,0.05,Wunderground v.1.15,2013-09-07 21:10:00,
2013-09-07 17:15:00,78.4,67.0,29.94,West,262,0.0,0.0,68,0.00,,,0.05,Wunderground v.1.15,2013-09-07 21:15:00,
2013-09-07 17:25:00,77.6,68.7,29.94,WSW,248,0.0,0.0,74,0.00,,,0.05,Wunderground v.1.15,2013-09-07 21:25:00,
2013-09-07 17:30:00,76.8,67.1,29.95,WSW,250,0.0,0.0,72,0.00,,,0.05,Wunderground v.1.15,2013-09-07 21:30:00,
2013-09-07 17:40:00,75.5,68.2,29.94,West,262,0.0,0.0,78,0.00,,,0.06,Wunderground v.1.15,2013-09-07 21:40:00,
2013-09-07 17:45:00,75.0,68.4,29.93,West,261,0.0,0.0,80,0.00,,,0.06,Wunderground v.1.15,2013-09-07 21:45:00,
2013-09-07 17:55:00,74.7,68.8,29.94,West,261,0.0,0.0,82,0.00,,,0.06,Wunderground v.1.15,2013-09-07 21:55:00,
2013-09-07 18:00:00,75.0,68.8,29.94,West,262,0.0,0.0,81,0.00,,,0.06,Wunderground v.1.15,2013-09-07 22:00:00,
2013-09-07 18:10:00,75.2,68.6,29.93,West,262,0.0,0.0,80,0.00,,,0.06,Wunderground v.1.15,2013-09-07 22:10:00,
2013-09-07 18:15:00,75.1,68.5,29.93,West,262,0.0,0.0,80,0.00,,,0.06,Wunderground v.1.15,2013-09-07 22:15:00,
2013-09-07 18:25:00,74.9,68.7,29.94,West,262,0.0,0.0,81,0.00,,,0.06,Wunderground v.1.15,2013-09-07 22:25:00,
2013-09-07 18:35:00,74.6,68.4,29.94,West,262,0.0,0.0,81,0.00,,,0.06,Wunderground v.1.15,2013-09-07 22:35:00,
2013-09-07 18:40:00,74.6,69.1,29.94,West,262,0.0,0.0,83,0.00,,,0.06,Wunderground v.1.15,2013-09-07 22:40:00,
2013-09-07 18:50:00,74.5,69.0,29.93,West,262,0.0,0.0,83,0.00,,,0.06,Wunderground v.1.15,2013-09-07 22:50:00,
2013-09-07 18:55:00,74.4,68.5,29.93,West,262,0.0,0.0,82,0.00,,,0.06,Wunderground v.1.15,2013-09-07 22:55:00,
2013-09-07 19:00:00,74.4,68.9,29.93,West,262,0.0,0.0,83,0.00,,,0.06,Wunderground v.1.15,2013-09-07 23:00:00,
2013-09-07 19:10:00,74.6,69.8,29.93,West,262,0.0,0.0,85,0.00,,,0.07,Wunderground v.1.15,2013-09-07 23:10:00,
2013-09-07 19:15:00,74.6,70.1,29.92,West,262,0.0,0.0,86,0.00,,,0.07,Wunderground v.1.15,2013-09-07 23:15:00,
2013-09-07 19:25:00,74.4,69.2,29.92,West,262,0.0,0.0,84,0.00,,,0.07,Wunderground v.1.15,2013-09-07 23:25:00,
2013-09-07 19:35:00,74.3,69.1,29.92,West,262,0.0,0.0,84,0.00,,,0.07,Wunderground v.1.15,2013-09-07 23:35:00,
2013-09-07 19:40:00,74.2,69.1,29.91,West,262,0.0,0.0,84,0.00,,,0.07,Wunderground v.1.15,2013-09-07 23:40:00,
2013-09-07 19:50:00,74.0,69.2,29.91,West,262,0.0,0.0,85,0.00,,,0.07,Wunderground v.1.15,2013-09-07 23:50:00,
2013-09-07 19:55:00,73.8,69.0,29.91,West,262,0.0,0.0,85,0.00,,,0.07,Wunderground v.1.15,2013-09-07 23:55:00,
2013-09-07 20:00:00,73.5,69.1,29.91,West,262,0.0,0.0,86,0.00,,,0.07,Wunderground v.1.15,2013-09-08 00:00:00,
2013-09-07 20:10:00,73.0,68.9,29.91,West,262,0.0,0.0,87,0.00,,,0.07,Wunderground v.1.15,2013-09-08 00:10:00,
2013-09-07 20:20:00,72.4,68.0,29.91,West,262,0.0,0.0,86,0.00,,,0.07,Wunderground v.1.15,2013-09-08 00:20:00,
2013-09-07 20:30:00,71.9,67.1,29.91,West,262,0.0,0.0,85,0.00,,,0.07,Wunderground v.1.15,2013-09-08 00:30:00,
2013-09-07 20:40:00,71.5,66.8,29.92,West,262,0.0,0.0,85,0.00,,,0.07,Wunderground v.1.15,2013-09-08 00:40:00,
2013-09-07 20:50:00,71.2,66.8,29.92,West,262,0.0,0.0,86,0.00,,,0.07,Wunderground v.1.15,2013-09-08 00:50:00,
2013-09-07 20:55:00,71.0,66.9,29.92,West,262,0.0,0.0,87,0.00,,,0.07,Wunderground v.1.15,2013-09-08 00:55:00,
2013-09-07 21:00:00,70.8,66.7,29.92,West,262,0.0,0.0,87,0.00,,,0.07,Wunderground v.1.15,2013-09-08 01:00:00,
2013-09-07 21:10:00,70.6,66.9,29.92,West,262,0.0,0.0,88,0.00,,,0.08,Wunderground v.1.15,2013-09-08 01:10:00,
2013-09-07 21:20:00,70.2,66.5,29.92,West,262,0.0,0.0,88,0.00,,,0.08,Wunderground v.1.15,2013-09-08 01:20:00,
2013-09-07 21:25:00,69.9,66.2,29.92,West,262,0.0,0.0,88,0.00,,,0.08,Wunderground v.1.15,2013-09-08 01:25:00,
2013-09-07 21:35:00,69.4,66.0,29.92,West,262,0.0,0.0,89,0.00,,,0.08,Wunderground v.1.15,2013-09-08 01:35:00,
2013-09-07 21:45:00,69.1,66.0,29.92,West,262,0.0,0.0,90,0.00,,,0.08,Wunderground v.1.15,2013-09-08 01:45:00,
2013-09-07 21:50:00,68.9,65.8,29.92,West,262,0.0,0.0,90,0.00,,,0.08,Wunderground v.1.15,2013-09-08 01:50:00,
2013-09-07 22:00:00,68.8,66.1,29.93,West,262,0.0,0.0,91,0.00,,,0.08,Wunderground v.1.15,2013-09-08 02:00:00,
2013-09-07 22:05:00,69.0,66.3,29.93,West,262,0.0,0.0,91,0.00,,,0.08,Wunderground v.1.15,2013-09-08 02:05:00,
2013-09-07 22:15:00,69.4,66.3,29.93,West,269,0.0,0.0,90,0.00,,,0.08,Wunderground v.1.15,2013-09-08 02:15:00,
2013-09-07 22:20:00,69.8,66.4,29.94,West,259,0.0,0.0,89,0.00,,,0.08,Wunderground v.1.15,2013-09-08 02:20:00,
2013-09-07 22:30:00,70.2,66.1,29.94,WSW,258,0.0,0.0,87,0.00,,,0.08,Wunderground v.1.15,2013-09-08 02:30:00,
2013-09-07 22:35:00,70.3,66.2,29.94,WSW,258,0.0,0.0,87,0.00,,,0.08,Wunderground v.1.15,2013-09-08 02:35:00,
2013-09-07 22:45:00,70.2,66.1,29.94,WSW,258,0.0,0.0,87,0.00,,,0.08,Wunderground v.1.15,2013-09-08 02:45:00,
2013-09-07 22:55:00,70.1,66.0,29.94,WSW,258,0.0,0.0,87,0.00,,,0.08,Wunderground v.1.15,2013-09-08 02:55:00,
2013-09-07 23:00:00,70.0,66.0,29.94,WSW,258,0.0,0.0,87,0.00,,,0.08,Wunderground v.1.15,2013-09-08 03:00:00,
2013-09-07 23:10:00,70.1,66.0,29.94,WSW,258,0.0,0.0,87,0.00,,,0.08,Wunderground v.1.15,2013-09-08 03:10:00,
2013-09-07 23:15:00,70.2,66.1,29.94,WSW,258,0.0,0.0,87,0.00,,,0.08,Wunderground v.1.15,2013-09-08 03:15:00,
2013-09-07 23:25:00,70.2,65.8,29.93,WSW,258,0.0,0.0,86,0.00,,,0.08,Wunderground v.1.15,2013-09-08 03:25:00,
2013-09-07 23:30:00,70.2,65.8,29.94,WSW,258,0.0,0.0,86,0.00,,,0.08,Wunderground v.1.15,2013-09-08 03:30:00,
2013-09-07 23:40:00,70.2,66.1,29.93,WSW,258,0.0,0.0,87,0.00,,,0.08,Wunderground v.1.15,2013-09-08 03:40:00,
2013-09-07 23:45:00,70.2,66.1,29.93,WSW,258,0.0,0.0,87,0.00,,,0.08,Wunderground v.1.15,2013-09-08 03:45:00,
2013-09-07 23:55:00,70.1,65.7,29.94,WSW,257,0.0,0.0,86,0.00,,,0.08,Wunderground v.1.15,2013-09-08 03:55:00,